RH
32 39 37 32 29 26 23 24 25 27 22 26 42 45 45 56 73 86 92 91 94 97 91 82 84 90 87 88 95 98 97 93 92 95 96 96 89 82 75 72 77 78 81 88 83 86 84 72 74 72 70 72 74 75
30 41 37 33 30 24 18 23 22 28 32 24 39 45 43 53 69 79 89 87 89 97 94 90 89 88 84 87 92 96 97 95 91 97 96 95 91 83 77 74 74 78 71 75 77 74 69 70 70 66 64 65 72 74
33 41 39 34 30 23 20 22 20 17 21 32 32 41 48 53 63 76 84 86 89 91 90 88 84 86 87 86 89 94 97 93 94 96 96 95 92 84 81 75 72 72 72 77 74 68 70 70 67 65 64 65 64 66
35 40 40 32 27 23 23 19 17 19 19 18 19 29 46 52 60 72 79 84 88 92 94 88 87 85 83 87 89 91 94 97 97 98 96 94 93 81 78 73 71 75 75 74 74 69 70 68 68 65 66 68 69 69
37 42 40 32 26 26 25 21 17 19 21 22 25 23 40 48 60 70 82 88 92 93 89 86 82 85 85 87 89 90 94 98 99 98 97 95 96 90 81 75 73 72 71 75 75 71 72 70 70 68 70 71 73 72
38 44 37 34 26 26 24 25 22 19 22 27 34 32 43 56 69 83 93 92 90 90 89 84 83 82 85 87 87 93 97 97 98 98 96 92 92 90 85 81 71 66 67 71 73 72 74 74 72 71 72 72 71 72
39 44 36 35 27 26 23 27 24 20 22 29 37 37 49 62 75 90 91 88 91 90 88 85 86 82 85 88 87 91 94 98 99 98 96 93 94 91 87 82 75 71 68 68 71 74 75 75 74 72 72 73 74 74
39 46 37 36 32 25 25 26 22 17 21 34 40 42 55 61 74 88 94 94 91 90 88 85 85 81 82 88 93 92 96 99 99 98 96 96 97 93 89 81 75 73 70 70 73 77 75 77 78 77 77 75 75 79
38 47 37 33 30 26 27 25 21 13 22 35 37 40 59 67 83 95 98 96 93 91 86 81 82 80 82 86 88 94 97 98 97 97 96 96 92 91 81 80 77 73 72 72 74 77 78 79 81 82 81 80 75 83
42 47 38 33 31 28 27 21 18 16 25 38 39 39 64 82 93 98 99 98 95 89 82 84 79 80 77 81 88 92 94 94 97 96 95 92 85 76 76 79 77 75 73 69 71 78 84 88 84 80 78 77 78 70
46 49 38 34 31 27 28 22 16 14 29 43 44 45 71 91 98 99 99 98 94 89 84 81 79 81 79 78 80 86 90 91 89 90 92 88 81 74 74 78 81 76 73 75 75 78 83 88 82 83 77 71 68 67
47 49 40 36 32 28 28 22 18 14 32 45 47 53 82 96 98 99 98 95 90 84 81 82 80 77 80 79 80 81 85 85 83 80 82 80 66 64 67 73 76 74 73 71 69 77 81 80 71 68 66 66 67 69
49 48 40 37 33 29 27 23 18 10 33 49 53 74 96 98 98 98 93 90 89 83 83 86 87 83 83 83 79 77 79 81 80 83 76 66 64 61 68 72 73 68 70 68 67 66 67 68 67 67 66 66 67 67
54 48 42 39 34 31 28 25 20 12 29 47 61 84 97 97 97 93 88 88 87 85 85 89 91 89 87 88 85 81 78 76 77 77 68 55 50 53 62 67 67 68 67 66 67 67 65 65 67 69 69 71 70 69
58 49 44 40 36 32 29 26 23 24 27 39 59 79 89 90 90 88 86 85 86 85 87 87 87 86 91 88 86 83 78 73 70 67 56 47 45 47 52 57 61 65 66 66 67 68 70 71 71 72 74 73 72 70
61 54 46 43 38 33 31 29 33 33 28 34 46 64 78 82 82 82 83 84 86 85 85 85 88 89 86 84 87 84 80 72 61 59 54 51 49 51 51 51 53 56 59 64 68 70 71 73 74 75 76 76 75 72
64 58 53 47 39 36 33 34 38 39 37 35 38 45 55 74 79 79 80 82 83 87 89 91 88 87 84 86 80 77 74 69 66 58 56 55 54 53 52 54 54 54 56 60 64 67 71 73 74 74 74 78 75 73
68 61 59 50 42 38 37 42 41 42 42 35 35 36 40 45 54 66 74 79 86 90 92 92 89 88 82 81 75 70 70 69 69 64 61 58 56 52 52 54 57 58 59 61 64 67 70 72 73 72 76 78 74 70
70 66 61 53 46 42 38 41 44 42 44 39 33 31 31 30 31 43 55 70 79 89 93 94 92 82 79 78 75 72 74 73 69 65 63 62 60 58 56 57 59 62 64 66 67 66 68 70 68 72 75 74 72 60
74 70 64 56 49 44 41 44 44 44 43 45 37 33 29 24 20 22 31 48 65 83 91 89 84 82 83 81 80 78 80 78 74 69 65 62 61 59 59 60 62 64 65 67 69 71 73 70 76 76 74 69 58 55
76 71 66 58 53 47 44 47 48 49 47 44 38 33 28 25 24 26 28 35 45 65 79 86 87 88 86 86 90 86 82 82 78 74 73 69 66 64 63 65 66 69 71 74 74 74 77 81 79 75 70 63 61 59
77 73 68 60 54 51 54 55 54 52 46 45 40 36 33 29 29 33 37 37 43 43 55 75 88 93 92 92 93 95 93 84 84 79 74 72 71 70 70 71 71 73 77 78 78 79 81 90 82 74 71 67 65 62
82 75 68 62 58 54 53 57 54 51 46 43 40 36 35 35 33 32 36 39 39 44 51 58 73 93 96 96 96 97 98 96 89 85 81 77 75 74 76 79 80 79 80 81 81 83 93 84 77 75 70 67 64 65
82 77 71 63 58 53 51 53 51 48 45 43 41 37 32 33 35 39 39 36 37 42 48 51 52 66 88 95 96 96 97 97 98 95 91 86 81 81 82 85 87 87 86 85 84 92 88 82 77 73 68 66 67 68
84 79 68 60 58 56 52 51 51 48 45 44 41 33 35 40 43 41 38 36 41 47 50 49 48 49 67 88 95 96 97 97 97 98 97 95 90 86 86 87 91 93 92 89 89 89 87 81 78 72 71 71 72 76
85 73 67 61 58 54 49 46 47 47 44 39 36 37 41 43 45 43 42 45 47 46 46 48 50 53 57 75 88 96 97 97 97 98 98 98 97 93 90 90 91 93 93 91 90 93 84 81 78 76 75 78 83 83
84 76 70 66 60 53 52 49 49 45 41 37 38 42 43 45 44 42 40 32 31 34 41 46 50 57 60 69 84 96 97 96 97 97 97 98 98 97 95 94 94 96 97 94 97 88 86 84 82 81 82 90 86 84
80 77 75 71 66 59 54 52 50 43 37 36 39 40 37 36 32 26 28 31 38 40 43 45 47 57 61 71 84 89 96 97 97 97 97 97 97 96 97 98 98 98 97 98 94 94 91 85 82 88 96 90 84 74
84 78 74 72 68 60 53 50 44 33 33 36 36 34 32 27 25 28 33 36 43 47 49 51 52 55 66 73 83 88 95 97 97 97 97 97 97 97 98 97 97 97 98 97 97 96 90 86 96 97 91 83 73 63
81 77 74 71 62 55 48 44 38 37 37 36 35 34 33 29 30 33 35 38 47 52 57 59 61 60 72 77 85 92 93 96 97 97 97 97 97 97 97 98 97 97 97 97 96 93 95 97 95 89 83 72 65 64
78 75 70 66 60 51 48 45 43 42 41 39 40 40 38 36 33 34 37 41 51 57 63 68 69 71 78 81 91 97 96 96 97 97 97 97 97 97 97 98 98 97 97 96 94 96 97 95 90 83 74 70 67 65
66 66 65 59 53 51 53 51 48 45 43 42 41 42 40 40 40 38 40 48 58 69 74 78 78 81 85 89 93 97 97 97 97 97 97 97 97 97 97 98 98 98 96 97 97 97 97 89 83 76 73 71 67 61
67 66 60 54 54 55 57 55 51 47 44 44 42 42 43 46 45 41 45 54 65 76 82 89 89 90 94 93 95 97 97 97 97 97 97 97 97 98 97 98 98 98 98 98 97 92 85 80 77 76 74 67 61 53